St. Petersburg, FL

8:53 PM EST on January 19, 2018 (GMT -0500)
Whitted

Weather History for KSPG - December, 2012

Change the Weather History Date:

Tuesday, December 11, 2012

  Actual Average Record
Temperature  
Mean Temperature 72 °F -  
Max Temperature 75 °F 72 °F 88 °F (1985)
Min Temperature 69 °F 58 °F 39 °F (1954)
Cooling Degree Days 7    
Growing Degree Days 22 (Base 50)    
Moisture  
Dew Point 70 °F    
Average Humidity 97    
Maximum Humidity 100    
Minimum Humidity 85    
Precipitation  
Precipitation 0.02 in - - ()
Sea Level Pressure  
Sea Level Pressure 29.95 in    
Wind  
Wind Speed 5 mph (SSW)    
Max Wind Speed 12 mph    
Max Gust Speed -    
Visibility 9 miles    
Events Rain    
Averages and records for this station are not official NWS values.
T = Trace of Precipitation, MM = Missing Value Source: NWS Daily Summary

Daily Weather History Graph

Daily Weather History Graph

Search for Another Location

Airport or City:

Trip Planner

Search our weather history database for the weather conditions in past years. The results will help you decide how hot, cold, wet, or windy it might be!

Date:

Astronomy

Dec. 11, 2012 Rise Set
Actual Time 7:11 AM EST 5:36 PM EST
Civil Twilight 6:45 AM EST 6:02 PM EST
Nautical Twilight 6:16 AM EST 6:31 PM EST
Astronomical Twilight 5:48 AM EST 6:59 PM EST
Moon 5:09 AM EST (12/11) 4:11 PM EST (12/11)
Length of Visible Light 11h 16m
Length of Day
10h 24m
Waning Crescent, 4% of the Moon is Illuminated
Dec 11
Waning Crescent
Dec 13
New
Dec 20
First Quarter
Dec 28
Full
Jan 4
Last Quarter

Hourly Weather History & Observations

Time (EST) Temp. Dew Point Humidity Pressure Visibility Wind Dir Wind Speed Gust Speed Precip Events Conditions
12:53 AM 69.1 °F 69.1 °F 100% 29.89 in 9.0 mi SSW 4.6 mph - N/A   Partly Cloudy
1:03 AM 70.0 °F 69.1 °F 97% 29.90 in 9.0 mi SW 5.8 mph - N/A   Mostly Cloudy
1:26 AM 70.0 °F 70.0 °F 100% 29.90 in 9.0 mi SSW 6.9 mph - N/A   Overcast
1:49 AM 69.8 °F 69.8 °F 100% 29.89 in 8.0 mi SW 4.6 mph - N/A   Scattered Clouds
1:53 AM 70.0 °F 70.0 °F 100% 29.89 in 8.0 mi SSW 5.8 mph - N/A   Partly Cloudy
2:53 AM 69.1 °F 69.1 °F 100% 29.88 in 7.0 mi SW 4.6 mph - N/A   Clear
3:18 AM 69.1 °F 69.1 °F 100% 29.89 in 6.0 mi SSW 5.8 mph - N/A   Scattered Clouds
3:27 AM 70.0 °F 70.0 °F 100% 29.89 in 7.0 mi SSW 6.9 mph - N/A   Mostly Cloudy
3:53 AM 70.0 °F 70.0 °F 100% 29.90 in 7.0 mi South 8.1 mph - N/A   Overcast
4:53 AM 69.1 °F 69.1 °F 100% 29.89 in 9.0 mi WSW 3.5 mph - N/A   Mostly Cloudy
5:04 AM 69.1 °F 69.1 °F 100% 29.89 in 9.0 mi SW 5.8 mph - N/A   Mostly Cloudy
5:33 AM 69.1 °F 69.1 °F 100% 29.90 in 9.0 mi SSW 3.5 mph - N/A   Overcast
5:53 AM 69.1 °F 69.1 °F 100% 29.90 in 9.0 mi South 3.5 mph - N/A   Overcast
6:09 AM 69.1 °F 69.1 °F 100% 29.91 in 7.0 mi Calm Calm - N/A   Unknown
6:53 AM 69.1 °F 69.1 °F 100% 29.93 in 8.0 mi Calm Calm - N/A   Clear
7:53 AM 69.1 °F 69.1 °F 100% 29.94 in 10.0 mi WSW 3.5 mph - N/A   Partly Cloudy
8:53 AM 70.0 °F 70.0 °F 100% 29.96 in 10.0 mi South 5.8 mph - N/A   Partly Cloudy
9:14 AM 70.0 °F 70.0 °F 100% 29.96 in 9.0 mi South 4.6 mph - N/A   Overcast
9:45 AM 72.0 °F 71.1 °F 97% 29.97 in 10.0 mi SSE 4.6 mph - N/A   Scattered Clouds
9:53 AM 72.0 °F 71.1 °F 97% 29.97 in 10.0 mi SSE 5.8 mph - N/A   Scattered Clouds
10:53 AM 75.0 °F 71.1 °F 87% 29.98 in 10.0 mi SW 10.4 mph - N/A   Mostly Cloudy
11:21 AM 75.0 °F 71.1 °F 87% 29.99 in 10.0 mi SSW 11.5 mph - N/A   Overcast
11:53 AM 73.9 °F 71.1 °F 91% 29.98 in 10.0 mi SSW 10.4 mph - N/A   Overcast
12:53 PM 75.9 °F 71.1 °F 85% 29.96 in 10.0 mi SW 11.5 mph - N/A   Mostly Cloudy
1:53 PM 75.9 °F 71.1 °F 85% 29.93 in 10.0 mi SSW 9.2 mph - N/A   Mostly Cloudy
2:53 PM 75.0 °F 71.1 °F 87% 29.94 in 10.0 mi WSW 8.1 mph - N/A   Clear
3:53 PM 73.9 °F 71.1 °F 91% 29.95 in 10.0 mi WSW 9.2 mph - 0.00 in   Mostly Cloudy
4:53 PM 73.0 °F 71.1 °F 93% 29.93 in 8.0 mi Calm Calm - 0.02 in Rain Light Rain
5:53 PM 72.0 °F 70.0 °F 93% 29.93 in 10.0 mi NNE 3.5 mph - 0.00 in   Scattered Clouds
6:53 PM 72.0 °F 71.1 °F 97% 29.96 in 10.0 mi Calm Calm - N/A   Clear
7:53 PM 72.0 °F 71.1 °F 97% 29.98 in 10.0 mi Calm Calm - N/A   Clear
8:48 PM 71.6 °F 71.6 °F 100% 30.00 in 9.0 mi NE 3.5 mph - N/A   Mostly Cloudy
8:53 PM 71.1 °F 71.1 °F 100% 30.00 in 10.0 mi ENE 3.5 mph - N/A   Mostly Cloudy
9:53 PM 71.1 °F 71.1 °F 100% 30.02 in 10.0 mi Calm Calm - N/A   Overcast
10:09 PM 71.1 °F 70.0 °F 96% 30.02 in 10.0 mi East 4.6 mph - N/A   Scattered Clouds
10:23 PM 71.1 °F 71.1 °F 100% 30.02 in 10.0 mi Calm Calm - N/A   Mostly Cloudy
10:53 PM 71.1 °F 71.1 °F 100% 30.02 in 10.0 mi ESE 4.6 mph - N/A   Overcast
11:04 PM 71.1 °F 70.0 °F 96% 30.01 in 9.0 mi East 3.5 mph - N/A   Scattered Clouds
11:53 PM 71.1 °F 71.1 °F 100% 30.01 in 10.0 mi SSE 9.2 mph - N/A   Scattered Clouds